Погода в Полтаве

Поиск расширенной информации на нашем сайте:

Полезная информация:

Новости сайта



02.01.2020
Опубликован Долгосрочный прогноз погоды по городам России и ближнего зарубежья на январь 2020 года.
Карты: Прогноз на январь и февраль 2020 года, Сравнение прогнозируемой аномалии приземной температуры воздуха на январь 2020 года по разным моделям.




Погода в Полтаве - сегодня

Время (UTC), дата Ветер
(°,м/с) 
Видим.   Явления Облачность Т
(°С)
Тd
(°С)
f(%) Тe
(°С)
Pmin
(гПа)
dP
(гПа)
Po
(мм)
O2
(г/м3)
Тmin Tmax R s Состояние
почвы
15 27.03.20 080 (В) 10 км    6/0 средняя, верхняя 
[Ac lent|Cc]
+15.9 -10.7 15 +16  1023.2  -1.8  753  288           
18 27.03.20 050 (СВ) 10 км    3/0 верхняя 
[Ci fib]
+11 -9.7 22 +11  1023.1  -0.4  753  292           
21 27.03.20 040 (СВ) 10 км    ясно 
+8.3 -9.7 27 +8  1022.7  -0.6  752  295           
00 28.03.20 030 (СВ) 10 км    ясно 
+6.6 -7.4 36 +6  1021.5  -1.3  751  296           
03 28.03.20 050 (СВ) 10 км    9/0 верхняя 
[Ci]
+5.4 -5.8 44 +6  1020.6  -1  751  297           
06 28.03.20 060 (СВ) 10 км    9/1 600 м верхняя 
[Sc|Cc]
+7.8 -5.2 39 +7  1019.7  -0.7  750  294  +4.8         
09 28.03.20 080 (В) 10 км    9/4 600 м средняя, верхняя 
[Sc|Ac trans|Ci fib]
+14.3 -7.6 21 +14  1016.9  -2.3  748  287           
12 28.03.20 070 (В) 10 км    9/8 600 м средняя 
[Sc|Ac trans]
+15.6 -9.4 17 +15  1014.5  -2.3  747  285           
15 28.03.20 080 (В) 10 км    9/8 600 м средняя, верхняя 
[Sc|Ac trans|Ci fib]
+16.4 -8.3 18 +16  1012.5  -1.9  745  284           
18 28.03.20 050 (СВ) 10 км    9/0 средняя, верхняя 
[Ac trans|Ci fib]
+12.4 -4.9 30 +13  1012.6  -0.1  745  288    +17.5       
21 28.03.20 070 (В) 10 км    9/0 средняя, верхняя 
[Ac trans|Ci fib]
+10 -5.1 34 +10  1011.9  -0.9  744  290           
00 29.03.20 090 (В) 10 км    9/0 средняя, верхняя 
[Ac trans|Ci fib]
+7.7 -6.1 37 +9  1010.2  -1.8  743  292           
03 29.03.20 070 (В) 10 км    10/0 средняя 
[Ac und]
+7 -5.2 41 +8  1008.9  -1.3  742  292           
06 29.03.20 070 (В) н/о    10/0 средняя 
[Ac As]
+8.5 -3.9 41 +9  1008  -0.8  742  290  +6.7  +1      сухая 
09 29.03.20 090 (В) 10 км    10/0 средняя 
[As op]
+12.4 -2.3 36 +12  1005.9  -1.8  740  286           
12 29.03.20 100 (В) 10 км    8/0 верхняя 
[Ci fib]
+16 -1.1 31 +16  1004.1  -1.5  739  281           
15 29.03.20 110 (В) 10 км    9/0 средняя, верхняя 
[Ac trans|Ci fib]
+15 -2.2 30 +16  1003.5  -0.7  739  282           
18 29.03.20 270 (З) 10 км    9/8 600 м средняя 
[Sc|Ac As]
+12.7 -2.1 36 +14  1003.7  0.1  739  285    +16.5       
21 29.03.20 тихо ()   10 км    9/8 600 м средняя 
[Sc|Ac As]
+10.8 -0.9 44 +11  1003.1  -0.8  738  286           
00 30.03.20 310 (СЗ) 10 км    9/3 600 м средняя 
[Sc|Ac trans]
+8.6 -2.9 44 +10  1002.2  -1  737  288           
03 30.03.20 280 (З) 10 км    4/0 средняя 
[Ac trans]
+6.2 -3.6 49 +6  1002.2  -0.2  737  291           
06 30.03.20 290 (З) 10 км    3/0 средняя 
[Ac trans]
+10.4 +0.8 51 +12  1002.4  0.5  737  286  +5.3  +1.1      сухая 
09 30.03.20 290 (З) 10 км    4/0 верхняя 
[Ci fib]
+16.3 -4.2 24 +17  1002  737  281           
12 30.03.20 300 (СЗ) 10 км    10/1 1000 м верхняя 
[Sc|Cs]
+17.1 -1.7 28 +18  1001.9  737  280           
15 30.03.20 290 (З) 10 км    9/0 верхняя 
[Sc|Ci fib]
+17 -3.2 25 +17  1002.7  0.7  738  280           
Время (UTC), дата Ветер
(°,м/с) 
Видим.   Явления Облачность Т
(°С)
Тd
(°С)
f(%) Тe
(°С)
Pmin
(гПа)
dP
(гПа)
Po
(мм)
O2
(г/м3)
Тmin Tmax R s Состояние
почвы

Для получения пояснительной информации подведите курсор к названию столбца.

ПОГОДА в Полтаве - архив

Всё, что Вы хотите узнать о погоде в Полтаве - удобно и подробно!

Выберите нужную дату (начиная с 1 января 2019* года) и нажмите кнопку "Найти".
Будут отображены архивные сводки погоды по пункту Полтава, начиная с указанной даты.


Отображать данные в формате CSV (для использования в таблицах Excel)


Внимание! Наш архив погоды предназначен исключительно для личного некоммерческого использования в познавательных целях. Если Вам необходимы официальные справки о состоянии погоды (для производственных, юридических, коммерческих и т.п. целей), обращайтесь в органы Росгидромета.

*Примечание: данная дата относится к архиву по метеостанциям СССР (Россия, СНГ, Балтия).
Архив по метеостанциям Зарубежной Европы и Азии (кроме Китая) хранится 10 дней, по другим регионам земного шара (Китай, Африка, Америка, Австралия, Океания) - 1 день.

Полтава - район местоположения метеостанции


Название, широта, долгота, высота метеостанции:
Полтава 49.6°ш. 34.6°д. 160 м над ур. моря [Украина]

Дополнительная информация

В oтличие oт бoльшинства пoгoдных сайтoв мы публикуем пoдрoбную метеoинфoрмацию в детальнoм прoфессиoнальнoм фoрмате.

Характеристики температуры и влажнoсти вoздуха измеряются на высoте 2 м в тени вдали oт зданий и деревьев.
Скoрoсть ветра измеряется на высoте 10 м (на урoвне рoста челoвека скoрoсть ветра ниже в 1.5-2 раза). Если метеoстанция нахoдится в гoрoде или в лесу, тo скoрoсть ветра занижена на 2-4 м/с пo сравнению с oткрытым местoм. Скoрoсть ветра над акватoриями крупных рек и oзёр, а также на вершинах хoлмoв на 2-5 м/с выше, чем в oбычных услoвиях.
Атмoсфернoе давление в разных тoчках местнoсти мoжет значительнo oтличаться oт давления на метеoстанции, в зависимoсти oт услoвий рельефа (при пoдъёме на 10 м давление пoнижается примернo на 1 мм рт.ст.).